Location: Shenandoah County Park
(38.9356°N, 78.4524°W)
Time: 22:58:07
(UTC-05:00)

Courier 1B Rocket - Visible Passes

Search period start: 29 January 2023 00:00
Search period end: 08 February 2023 00:00
Orbit: 920 x 1202 km, 28.3° (Epoch: 29 January)

Date Brightness Start Highest point End Pass type
(mag) Time Alt. Az. Time Alt. Az. Time Alt. Az.
29 Jan 6.2 19:08:16 10° SW 19:13:28 28° SSE 19:16:09 21° SE visible
29 Jan 7.0 21:00:34 10° WSW 21:02:31 19° SW 21:02:31 19° SW visible
30 Jan 6.5 18:07:53 10° SW 18:12:41 23° SSE 18:17:35 10° ESE visible
30 Jan 6.0 19:59:48 10° WSW 20:05:17 32° S 20:05:17 32° S visible
31 Jan 6.1 18:59:06 10° SW 19:04:28 30° S 19:08:03 18° SE visible
31 Jan 6.8 20:51:49 10° WSW 20:54:25 21° SW 20:54:25 21° SW visible
01 Feb 6.4 17:58:31 10° SW 18:03:39 27° S 18:08:52 10° ESE visible
01 Feb 6.0 19:50:55 10° WSW 19:56:20 31° S 19:57:12 30° S visible
02 Feb 6.1 18:50:06 10° WSW 18:55:29 31° S 19:00:00 14° SE visible
02 Feb 6.7 20:43:10 10° WSW 20:46:23 22° SW 20:46:23 22° SW visible
03 Feb 6.2 19:42:09 10° WSW 19:47:20 28° S 19:49:13 24° SSE visible
04 Feb 6.3 18:41:11 10° WSW 18:46:31 30° S 18:51:55 10° SE visible
04 Feb 6.8 20:34:45 10° WSW 20:38:28 20° SSW 20:38:28 20° SSW visible
05 Feb 6.5 19:33:30 10° WSW 19:38:20 24° SSW 19:41:23 17° SSE visible
06 Feb 6.5 18:32:23 10° WSW 18:37:33 27° S 18:42:43 10° SE visible
06 Feb 7.0 20:26:45 10° SW 20:30:03 15° SSW 20:30:44 14° SSW visible
07 Feb 6.9 19:25:04 10° WSW 19:29:18 19° SSW 19:33:34 10° SSE visible
